Location: Caltech
(34.1382°N, 118.1253°W)
Time: 07:26:32
(UTC-07:00)

Cosmos 1484 Rocket - Visible Passes

Search period start: 23 April 2014 00:00
Search period end: 03 May 2014 00:00
Orbit: 516 x 577 km, 97.4° (Epoch: 23 April)

Date Brightness Start Highest point End Pass type
(mag) Time Alt. Az. Time Alt. Az. Time Alt. Az.
23 Apr 3.1 20:10:32 10° SSE 20:14:19 46° ENE 20:18:03 10° N visible
24 Apr 3.4 20:05:15 10° SE 20:08:55 39° ENE 20:12:33 10° N visible
24 Apr 5.8 21:42:23 10° WSW 21:43:42 11° W 21:45:00 10° WNW visible
25 Apr 3.6 19:59:58 10° SE 20:03:31 33° ENE 20:07:00 10° N visible
25 Apr 5.7 21:36:16 10° SW 21:38:14 13° W 21:40:10 10° WNW visible
26 Apr 3.8 19:54:44 10° SE 19:58:06 28° ENE 20:01:26 10° NNE visible
26 Apr 5.6 21:30:22 10° SW 21:32:45 16° W 21:35:08 10° WNW visible
27 Apr 5.4 21:24:33 10° SW 21:27:17 18° W 21:29:59 10° NW visible
28 Apr 5.1 21:18:48 10° SSW 21:21:48 21° W 21:24:46 10° NW visible
29 Apr 4.9 21:13:06 10° SSW 21:16:18 24° W 21:19:29 10° NW visible
30 Apr 4.6 21:07:25 10° SSW 21:10:48 28° W 21:14:10 10° NW visible
01 May 4.4 21:01:47 10° SSW 21:05:18 33° W 21:08:48 10° NNW visible
02 May 4.0 20:56:10 10° S 20:59:48 39° W 21:03:24 10° NNW visible
